Regional Weather Roundup
Issued by NWS

Home | Current Version | Previous Version | Text Only | Print | Product List | Glossary Off
Versions: 1 2 3 4 5 6 7 8 9 10 11 12 13 14 15 16 17 18 19 20 21 22 23 24 25 26 27 28 29 30 31 32 33 34 35 36 37 38 39 40 41 42 43 44 45 46 47 48 49 50

523
ASUS43 KLMK 281502
RWRKY
KENTUCKY REGIONAL WEATHER ROUNDUP
NATIONAL WEATHER SERVICE LOUISVILLE KY
1100 AM EDT TUE MAR 28 2017

NOTE "FAIR" INDICATES FEW OR NO CLOUDS BELOW 12,000 FEET
WITH NO SIGNIFICANT WEATHER AND/OR OBSTRUCTIONS TO VISIBILITY.

KYZ001>023-026-027-061>063-070>075-281600-
WESTERN AND SOUTH CENTRAL KENTUCKY

CITY           SKY/WX    TMP DP  RH WIND       PRES   REMARKS
PADUCAH        CLOUDY    58  51  78 VRB5      30.04R
HENDERSON      CLOUDY    55  50  82 NW8       30.02R
OWENSBORO      CLOUDY    56  54  93 N8        30.02R FOG
HOPKINSVILLE   CLOUDY    59  59 100 NW8       30.02R
BOWLING GREEN  PTSUNNY   61  54  77 NW6       30.01R
GLASGOW        NOT AVBL
$$

KYZ024-025-028>034-038-045-046-053-281600-
NORTH CENTRAL KENTUCKY

CITY           SKY/WX    TMP DP  RH WIND       PRES   REMARKS
LOUISVILLE/SDF CLOUDY    59  54  83 N8        29.99R
LOUISVILLE/LOU CLOUDY    59  54  83 N8        30.00R
FORT KNOX      CLOUDY    56  56 100 W6        29.98R FOG
$$

KYZ035>037-039>044-047>052-055>060-089>105-281600-
NORTHEAST KENTUCKY

CITY           SKY/WX    TMP DP  RH WIND       PRES   REMARKS
LEXINGTON      CLOUDY    58  54  86 W7        29.99R
COVINGTON      CLOUDY    56  54  93 N10       29.97R
FRANKFORT      CLOUDY    59  53  80 NW6       29.97R
$$

KYZ054-064>069-076>088-106>120-281600-
SOUTHEAST KENTUCKY

CITY           SKY/WX    TMP DP  RH WIND       PRES   REMARKS
JACKSON        CLOUDY    57  54  89 VRB6      29.98R
LONDON         CLOUDY    57  53  86 W10       30.00R
SOMERSET       NOT AVBL
MIDDLESBORO    CLOUDY    62  55  77 W6        30.00R
MONTICELLO     LGT RAIN  56  55  97 NW6       30.03R
$$





USA.gov is the U.S. government's official web portal to all federal, state and local government web resources and services.